Roseburg, OR

2:02 PM PST on November 13, 2019 (GMT -0800)
Roseburg Regional

Weather History for KRBG - September, 2019

Change the Weather History Date:

Tuesday, September 3, 2019

  Actual Average Record
Temperature  
Mean Temperature 72 °F 68 °F  
Max Temperature 86 °F 82 °F 97 °F (2003)
Min Temperature 58 °F 54 °F 41 °F (1958)
Degree Days  
Heating Degree Days 0 1  
Month to date heating degree days 0 3  
Since 1 July heating degree days 5 24  
Cooling Degree Days 7 4  
Month to date cooling degree days 26 12  
Year to date cooling degree days 629 423  
Growing Degree Days 22 (Base 50)    
Moisture  
Dew Point 54 °F    
Average Humidity 57    
Maximum Humidity 80    
Minimum Humidity 34    
Precipitation  
Precipitation 0.00 in 0.02 in 0.56 in (1960)
Month to date precipitation 0.00 0.07  
Year to date precipitation 22.77 19.72  
Sea Level Pressure  
Sea Level Pressure 30.02 in    
Wind  
Wind Speed 4 mph (North)    
Max Wind Speed 14 mph    
Max Gust Speed 18 mph    
Visibility 10 miles    
Events      
T = Trace of Precipitation, MM = Missing Value Source: NWS Daily Summary

Daily Weather History Graph

Daily Weather History Graph

Search for Another Location

Airport or City:

Astronomy

Sep. 03, 2019 Rise Set
Actual Time 6:39 AM PDT 7:45 PM PDT
Civil Twilight 6:10 AM PDT 8:14 PM PDT
Nautical Twilight 5:35 AM PDT 8:49 PM PDT
Astronomical Twilight 4:58 AM PDT 9:25 PM PDT
Moon 11:47 AM PDT (9/3) 10:36 PM PDT (9/3)
Length of Visible Light 14h 03m
Length of Day
13h 05m
Waxing Crescent, 25% of the Moon is Illuminated
Sep 3
Waxing Crescent
Sep 5
First Quarter
Sep 13
Full
Sep 21
Last Quarter
Sep 28
New

Hourly Weather History & Observations

Time (PDT) Temp. Heat Index Dew Point Humidity Pressure Visibility Wind Dir Wind Speed Gust Speed Precip Events Conditions
12:53 AM 64.9 °F - 54.0 °F 68% 30.02 in 10.0 mi Calm Calm - N/A   Clear
1:53 AM 63.0 °F - 54.0 °F 72% 30.03 in 10.0 mi Calm Calm - N/A   Clear
2:53 AM 62.1 °F - 54.0 °F 75% 30.03 in 10.0 mi Calm Calm - N/A   Clear
3:53 AM 61.0 °F - 54.0 °F 78% 30.04 in 10.0 mi Calm Calm - N/A   Clear
4:53 AM 60.1 °F - 53.1 °F 78% 30.03 in 10.0 mi Calm Calm - N/A   Clear
5:53 AM 59.0 °F - 53.1 °F 81% 30.04 in 10.0 mi Calm Calm - N/A   Clear
6:53 AM 59.0 °F - 53.1 °F 81% 30.05 in 10.0 mi North 3.5 mph - N/A   Clear
7:53 AM 60.1 °F - 54.0 °F 80% 30.06 in 10.0 mi Calm Calm - N/A   Clear
8:53 AM 64.0 °F - 55.0 °F 73% 30.06 in 10.0 mi Calm Calm - N/A   Clear
9:53 AM 66.0 °F - 55.0 °F 68% 30.06 in 10.0 mi Calm Calm - N/A   Clear
10:53 AM 71.1 °F - 55.0 °F 57% 30.06 in 10.0 mi Calm Calm - N/A   Clear
11:53 AM 73.9 °F - 54.0 °F 50% 30.04 in 10.0 mi Calm Calm - N/A   Clear
12:53 PM 77.0 °F - 52.0 °F 42% 30.02 in 10.0 mi Variable 4.6 mph - N/A   Clear
1:53 PM 82.9 °F 81.8 °F 53.1 °F 36% 30.00 in 10.0 mi Variable 5.8 mph - N/A   Clear
2:53 PM 82.9 °F 81.9 °F 54.0 °F 37% 29.98 in 10.0 mi North 5.8 mph - N/A   Clear
3:53 PM 82.9 °F 81.9 °F 54.0 °F 37% 29.97 in 10.0 mi NNE 9.2 mph - N/A   Clear
4:53 PM 84.9 °F 83.3 °F 54.0 °F 34% 29.96 in 10.0 mi North 12.7 mph 17.3 mph N/A   Clear
5:53 PM 84.0 °F 83.0 °F 55.9 °F 38% 29.96 in 10.0 mi NW 8.1 mph - N/A   Clear
6:53 PM 81.0 °F 81.0 °F 57.0 °F 44% 29.97 in 10.0 mi NW 11.5 mph - N/A   Clear
7:53 PM 75.9 °F - 55.9 °F 50% 29.98 in 10.0 mi North 9.2 mph - N/A   Clear
8:53 PM 73.0 °F - 54.0 °F 51% 30.00 in 10.0 mi North 10.4 mph - N/A   Clear
9:53 PM 71.1 °F - 53.1 °F 53% 30.01 in 10.0 mi North 8.1 mph - N/A   Clear
10:53 PM 69.1 °F - 54.0 °F 58% 30.02 in 10.0 mi North 4.6 mph - N/A   Clear
11:53 PM 66.0 °F - 54.0 °F 65% 30.03 in 10.0 mi North 4.6 mph - N/A   Clear